001  
ASUS43 KEAX 221410  
RWREAX  
 
WEATHER ROUNDUP FOR EASTERN KANSAS AND NORTHWEST MISSOURI  
NATIONAL WEATHER SERVICE KANSAS CITY/PLEASANT HILL MO  
900 AM CDT FRI JUN 22 2018  
 
KSZ040-057-103>105-MOZ028-029-037-043-221500-   
..KANSAS CITY METROPOLITAN AREA
 
 
 
CITY SKY/WX TMP DP RH WIND PRES REMARKS
 
K.C. INTL CLOUDY 67 62 84 N6 29.86R  
K.C. DOWNTOWN CLOUDY 67 60 78 N7 29.85R  
LEES SUMMIT NOT AVBL  
OLATHE - IXD CLOUDY 69 64 84 W9 29.87R  
OLATHE - OJC CLOUDY 67 63 87 NW8 29.85R  
LAWRENCE CLOUDY 69 63 81 NW7 29.87R  
 

 
 
MOZ001>008-011>017-020>025-030>033-038>040-044>046-053-054-221500-   
..NORTHERN AND CENTRAL MISSOURI
 
 
 
CITY SKY/WX TMP DP RH WIND PRES REMARKS
 
ST. JOSEPH CLOUDY 63 62 97 NW7 29.87R  
MOSBY N/A 66 59 77 W6 29.85R  
WARRENSBURG CLOUDY 68 61 77 NW6 29.83R  
WHITEMAN AFB PTSUNNY 67 64 89 N9 29.79R  
CLINTON CLOUDY 68 66 94 NW7 29.84R  
SEDALIA CLOUDY 67 65 93 NW8 29.82R  
WARSAW NOT AVBL  
CHILLICOTHE N/A 65 62 90 N8 29.82S  
KIRKSVILLE CLOUDY 64 64 100 N10 29.80R  
 

 
 
MOZ041-047>049-056>058-063>065-088>090-097-221500-   
..EASTERN AND SOUTHERN MISSOURI
 
 
 
CITY SKY/WX TMP DP RH WIND PRES REMARKS
 
ST. LOUIS INTL PTSUNNY 69 66 90 W9 29.72R  
SPIRIT OF STL CLOUDY 69 66 90 W9 29.72R FOG  
COLUMBIA CLOUDY 69 64 84 NW13 29.78R  
JEFFERSON CITY CLOUDY 68 65 90 W7 29.77S  
ROLLA LGT RAIN 64 62 93 W12 29.80R FOG  
OSAGE BEACH CLOUDY 68 65 90 N6 29.81S  
SPRINGFIELD CLOUDY 66 63 90 W12 29.86R FOG  
BRANSON MOSUNNY 70 63 78 NW6 29.87R  
JOPLIN CLOUDY 67 63 87 N8 29.87F  
WEST PLAINS PTSUNNY 70 63 78 W8 29.84R  
 

 
 
IAZ060-094-KSZ022-034>040-054-083-096-NEZ052-066-093-221500-    
..KANSAS...SOUTHEAST NEBRASKA AND IOWA
 
 
 
CITY SKY/WX TMP DP RH WIND PRES REMARKS
 
TOPEKA CLOUDY 67 63 87 NW6 29.87R  
MANHATTAN CLOUDY 67 61 81 NW5 29.89S  
EMPORIA CLOUDY 67 60 78 NW6 29.90R  
CHANUTE CLOUDY 70 65 84 NW9 29.90R  
WICHITA CLOUDY 67 61 81 N9 29.92R  
OMAHA DRIZZLE 62 58 86 N8 29.91R  
LINCOLN CLOUDY 64 58 80 N12 29.91S  
FALLS CITY CLOUDY 62 60 93 NW6 29.88R  
LAMONI CLOUDY 62 59 90 N10 29.84R  
DES MOINES CLOUDY 65 59 81 NE14 29.85R  
 

 
 
 
 
CLICK HERE TO GO TO PREVIOUS BULLETINS.

The Nexlab MO Page
The Nexlab KS Page Main Text Page